| time (UTC) | temp C | wind direction | speed KPH | gust KPH | rain 1hr cm | rain 24hr cm | rain mn cm | humidity % | barometer mb |
| 20260506115307 | 20 | 27 | 6.4 | 19.3 | 0.00 | 0.00 | 0.00 | 53 | 1014.1 |
| 20260506114805 | 20 | 79 | 4.8 | 19.3 | 0.00 | 0.00 | 0.00 | 56 | 1013.9 |
| 20260506114305 | 20 | 42 | 8.0 | 19.3 | 0.00 | 0.00 | 0.00 | 54 | 1014.2 |
| 20260506113806 | 19 | 41 | 8.0 | 24.1 | 0.00 | 0.00 | 0.00 | 59 | 1013.8 |
| 20260506112805 | 18 | 47 | 16.1 | 35.4 | 0.00 | 0.00 | 0.00 | 59 | 1013.9 |
| 20260506112306 | 18 | 26 | 14.5 | 32.2 | 0.00 | 0.00 | 0.00 | 59 | 1014.2 |
| 20260506111305 | 20 | 81 | 8.0 | 16.1 | 0.00 | 0.00 | 0.00 | 61 | 1014.4 |
| 20260506110805 | 19 | 62 | 8.0 | 25.7 | 0.00 | 0.00 | 0.00 | 64 | 1014.3 |
| 20260506110306 | 19 | 39 | 12.9 | 25.7 | 0.00 | 0.00 | 0.00 | 61 | 1014.3 |
| 20260506105305 | 18 | 39 | 12.9 | 32.2 | 0.00 | 0.00 | 0.00 | 60 | 1014.4 |
| 20260506103805 | 18 | 71 | 11.3 | 24.1 | 0.00 | 0.00 | 0.00 | 64 | 1014.1 |
| 20260506103305 | 18 | 50 | 11.3 | 24.1 | 0.00 | 0.00 | 0.00 | 61 | 1014.2 |
| 20260506102805 | 18 | 46 | 9.7 | 22.5 | 0.00 | 0.00 | 0.00 | 63 | 1014.3 |
| 20260506102306 | 18 | 44 | 14.5 | 24.1 | 0.00 | 0.00 | 0.00 | 63 | 1014.1 |
| 20260506101806 | 18 | 46 | 9.7 | 32.2 | 0.00 | 0.00 | 0.00 | 63 | 1014.1 |
| 20260506095805 | 17 | 41 | 11.3 | 32.2 | 0.00 | 0.00 | 0.00 | 67 | 1014.0 |
| 20260506094305 | 17 | 33 | 12.9 | 32.2 | 0.00 | 0.00 | 0.00 | 68 | 1014.0 |
| 20260506093806 | 17 | 66 | 11.3 | 24.1 | 0.00 | 0.00 | 0.00 | 68 | 1013.9 |
| 20260506091305 | 17 | 58 | 9.7 | 22.5 | 0.00 | 0.00 | 0.00 | 68 | 1013.7 |
| 20260506082305 | 15 | 91 | 11.3 | 25.7 | 0.00 | 0.00 | 0.00 | 72 | 1013.2 |
| 20260506080805 | 16 | 60 | 9.7 | 19.3 | 0.00 | 0.00 | 0.00 | 71 | 1013.1 |
| 20260506080305 | 16 | 52 | 11.3 | 27.4 | 0.00 | 0.00 | 0.00 | 72 | 1013.0 |
| 20260506070805 | 14 | 65 | 8.0 | 19.3 | 0.00 | 0.00 | 0.00 | 76 | 1012.8 |
| 20260506061305 | 14 | 99 | 14.5 | 22.5 | 0.00 | 0.00 | 0.00 | 76 | 1012.0 |
| 20260506060305 | 14 | 117 | 6.4 | 14.5 | 0.00 | 0.00 | 0.00 | 78 | 1012.1 |
| 20260506044805 | 14 | 98 | 8.0 | 16.1 | 0.00 | 0.00 | 0.00 | 86 | 1012.3 |
| 20260506043804 | 15 | 86 | 1.6 | 9.7 | 0.00 | 0.00 | 0.00 | 89 | 1012.3 |
| 20260506043306 | 15 | 293 | 3.2 | 9.7 | 0.00 | 0.00 | 0.00 | 89 | 1012.0 |
| 20260506042804 | 15 | 218 | 1.6 | 4.8 | 0.00 | 0.00 | 0.00 | 89 | 1012.3 |
| 20260506042305 | 15 | 16 | 1.6 | 4.8 | 0.00 | 0.00 | 0.00 | 89 | 1012.3 |
| 20260506041305 | 15 | 271 | 1.6 | 4.8 | 0.00 | 0.00 | 0.00 | 88 | 1012.2 |
| 20260506040805 | 15 | 267 | 1.6 | 4.8 | 0.00 | 0.00 | 0.00 | 88 | 1012.2 |
| 20260506035306 | 15 | 163 | 1.6 | 4.8 | 0.00 | 0.00 | 0.00 | 88 | 1012.1 |
| 20260506034805 | 15 | 225 | 8.0 | 11.3 | 0.00 | 0.00 | 0.00 | 88 | 1012.2 |
| 20260506034305 | 15 | 264 | 8.0 | 19.3 | 0.00 | 0.00 | 0.00 | 87 | 1012.3 |
| 20260506033805 | 15 | 282 | 8.0 | 14.5 | 0.00 | 0.00 | 0.00 | 88 | 1012.2 |
| 20260506032306 | 15 | 247 | 1.6 | 4.8 | 0.00 | 0.00 | 0.00 | 88 | 1012.4 |
| 20260506031805 | 15 | 244 | 4.8 | 9.7 | 0.00 | 0.00 | 0.00 | 88 | 1012.3 |
| 20260506030805 | 15 | 222 | 4.8 | 8.0 | 0.00 | 0.00 | 0.00 | 88 | 1012.3 |
| 20260506025804 | 15 | 207 | 3.2 | 8.0 | 0.00 | 0.00 | 0.00 | 88 | 1012.1 |
| 20260506025306 | 15 | 224 | 1.6 | 4.8 | 0.00 | 0.00 | 0.00 | 88 | 1012.3 |
| 20260506024804 | 15 | 166 | 1.6 | 4.8 | 0.00 | 0.00 | 0.00 | 88 | 1012.2 |
| 20260506023805 | 15 | 191 | 1.6 | 3.2 | 0.00 | 0.00 | 0.00 | 88 | 1012.2 |
| 20260506023304 | 15 | 271 | 0.0 | 1.6 | 0.00 | 0.00 | 0.00 | 88 | 1012.2 |
| 20260506022804 | 15 | 271 | 0.0 | 0.0 | 0.00 | 0.00 | 0.00 | 88 | 1012.4 |
| 20260506022306 | 15 | 260 | 1.6 | 4.8 | 0.00 | 0.00 | 0.00 | 87 | 1012.4 |
| 20260506021805 | 15 | 338 | 3.2 | 4.8 | 0.00 | 0.00 | 0.00 | 87 | 1012.3 |
| 20260506021305 | 15 | 223 | 3.2 | 4.8 | 0.00 | 0.00 | 0.00 | 87 | 1012.5 |
| 20260506020804 | 15 | 195 | 1.6 | 4.8 | 0.00 | 0.00 | 0.00 | 87 | 1012.5 |
| 20260506015306 | 15 | 217 | 1.6 | 4.8 | 0.00 | 0.00 | 0.00 | 87 | 1012.7 |
| 20260506014804 | 15 | 188 | 1.6 | 3.2 | 0.00 | 0.00 | 0.00 | 86 | 1012.8 |
| 20260506012307 | 15 | 229 | 0.0 | 4.8 | 0.00 | 0.00 | 0.00 | 86 | 1013.0 |
| 20260506011304 | 15 | 219 | 1.6 | 4.8 | 0.00 | 0.00 | 0.00 | 85 | 1013.1 |
| 20260506010805 | 15 | 259 | 0.0 | 4.8 | 0.00 | 0.00 | 0.00 | 84 | 1013.0 |
| 20260506010304 | 15 | 354 | 1.6 | 4.8 | 0.00 | 0.00 | 0.00 | 83 | 1013.1 |
| 20260506004805 | 15 | 307 | 3.2 | 8.0 | 0.00 | 0.00 | 0.00 | 81 | 1013.2 |
| 20260506004305 | 15 | 344 | 1.6 | 8.0 | 0.00 | 0.00 | 0.00 | 80 | 1013.1 |
| 20260506003805 | 15 | 224 | 1.6 | 4.8 | 0.00 | 0.00 | 0.00 | 78 | 1013.2 |
| 20260506002306 | 15 | 242 | 1.6 | 4.8 | 0.00 | 0.00 | 0.00 | 77 | 1013.1 |
| 20260505235804 | 15 | 249 | 0.0 | 1.6 | 0.00 | 0.00 | 0.00 | 78 | 1013.0 |
| 20260505232804 | 15 | 65 | 6.4 | 19.3 | 0.00 | 0.00 | 0.00 | 77 | 1013.1 |
| 20260505231804 | 15 | 60 | 11.3 | 19.3 | 0.00 | 0.00 | 0.00 | 78 | 1013.1 |
| 20260505231304 | 15 | 53 | 11.3 | 20.9 | 0.00 | 0.00 | 0.00 | 78 | 1013.1 |
| 20260505230804 | 15 | 50 | 11.3 | 20.9 | 0.00 | 0.00 | 0.00 | 78 | 1012.9 |
| 20260505230305 | 15 | 61 | 11.3 | 24.1 | 0.00 | 0.00 | 0.00 | 77 | 1013.1 |
| 20260505225805 | 15 | 80 | 19.3 | 29.0 | 0.00 | 0.00 | 0.00 | 77 | 1013.1 |
| 20260505224305 | 15 | 75 | 14.5 | 24.1 | 0.00 | 0.00 | 0.00 | 79 | 1013.1 |
| 20260505222805 | 16 | 131 | 8.0 | 14.5 | 0.00 | 0.00 | 0.00 | 82 | 1013.2 |
| 20260505222306 | 16 | 202 | 8.0 | 16.1 | 0.00 | 0.00 | 0.00 | 82 | 1013.3 |
| 20260505215805 | 15 | 123 | 6.4 | 11.3 | 0.00 | 0.00 | 0.00 | 83 | 1013.1 |
| 20260505213805 | 16 | 102 | 6.4 | 14.5 | 0.00 | 0.00 | 0.00 | 87 | 1013.0 |
| 20260505212805 | 16 | 128 | 11.3 | 11.3 | 0.00 | 0.00 | 0.00 | 88 | 1012.6 |
| 20260505211804 | 16 | 136 | 9.7 | 14.5 | 0.00 | 0.00 | 0.00 | 86 | 1012.7 |
| 20260505211305 | 16 | 90 | 1.6 | 9.7 | 0.00 | 0.00 | 0.00 | 84 | 1012.7 |
| 20260505210804 | 15 | 93 | 1.6 | 19.3 | 0.00 | 0.00 | 0.00 | 84 | 1012.6 |
| 20260505210305 | 15 | 93 | 4.8 | 19.3 | 0.00 | 0.00 | 0.00 | 85 | 1012.5 |
| 20260505205804 | 15 | 110 | 8.0 | 19.3 | 0.00 | 0.00 | 0.00 | 85 | 1012.5 |
| 20260505204305 | 16 | 66 | 1.6 | 9.7 | 0.00 | 0.00 | 0.00 | 88 | 1012.5 |
| 20260505202804 | 16 | 139 | 8.0 | 11.3 | 0.00 | 0.00 | 0.00 | 88 | 1012.4 |
| 20260505201805 | 16 | 101 | 4.8 | 4.8 | 0.00 | 0.00 | 0.00 | 89 | 1012.4 |
| 20260505200805 | 16 | 133 | 8.0 | 19.3 | 0.00 | 0.00 | 0.00 | 87 | 1012.2 |
| 20260505195804 | 16 | 143 | 11.3 | 19.3 | 0.00 | 0.00 | 0.00 | 87 | 1012.1 |
| 20260505195305 | 16 | 60 | 4.8 | 14.5 | 0.00 | 0.00 | 0.00 | 87 | 1012.2 |
| 20260505194805 | 16 | 130 | 3.2 | 11.3 | 0.00 | 0.00 | 0.00 | 88 | 1012.3 |
| 20260505194305 | 16 | 114 | 6.4 | 14.5 | 0.00 | 0.00 | 0.00 | 87 | 1012.2 |
| 20260505193304 | 16 | 146 | 9.7 | 19.3 | 0.00 | 0.00 | 0.00 | 87 | 1012.3 |
| 20260505192805 | 16 | 0 | 0.0 | 0.0 | 0.00 | 0.00 | 0.00 | 96 | 1012.1 |
| 20260505191805 | 16 | 0 | 0.0 | 0.0 | 0.00 | 0.00 | 0.00 | 96 | 1012.0 |
| 20260505191304 | 16 | 0 | 0.0 | 0.0 | 0.00 | 0.00 | 0.00 | 96 | 1012.0 |
| 20260505185804 | 16 | 0 | 0.0 | 0.0 | 0.00 | 0.00 | 0.00 | 96 | 1011.5 |
| 20260505184305 | 16 | 0 | 0.0 | 0.0 | 0.00 | 0.00 | 0.00 | 96 | 1011.9 |
| 20260505183805 | 16 | 0 | 0.0 | 0.0 | 0.00 | 0.00 | 0.00 | 96 | 1012.0 |
| 20260505182306 | 16 | 0 | 0.0 | 0.0 | 0.00 | 0.00 | 0.00 | 96 | 1012.0 |
| 20260505181805 | 16 | 0 | 0.0 | 0.0 | 0.00 | 0.00 | 0.00 | 96 | 1011.5 |
| 20260505180304 | 16 | 0 | 0.0 | 0.0 | 0.00 | 0.00 | 0.00 | 96 | 1012.0 |
| 20260505175305 | 16 | 0 | 0.0 | 0.0 | 0.00 | 0.00 | 0.00 | 96 | 1011.9 |
| 20260505174304 | 16 | 0 | 0.0 | 0.0 | 0.00 | 0.00 | 0.00 | 96 | 1012.3 |
| 20260505173305 | 16 | 0 | 0.0 | 0.0 | 0.00 | 0.00 | 0.00 | 96 | 1012.0 |
| 20260505172306 | 16 | 0 | 0.0 | 0.0 | 0.00 | 0.00 | 0.00 | 96 | 1012.1 |
| 20260505170304 | 16 | 0 | 0.0 | 0.0 | 0.00 | 0.00 | 0.00 | 96 | 1012.0 |
| 20260505165805 | 16 | 0 | 0.0 | 0.0 | 0.00 | 0.00 | 0.00 | 96 | 1012.0 |
| 20260505165306 | 16 | 0 | 0.0 | 0.0 | 0.00 | 0.00 | 0.00 | 96 | 1012.0 |
| 20260505164804 | 16 | 0 | 0.0 | 0.0 | 0.00 | 0.00 | 0.00 | 96 | 1012.1 |
| 20260505164304 | 16 | 0 | 0.0 | 0.0 | 0.00 | 0.00 | 0.00 | 96 | 1012.1 |
| 20260505163304 | 16 | 0 | 0.0 | 0.0 | 0.00 | 0.00 | 0.00 | 96 | 1012.1 |
| 20260505161804 | 16 | 0 | 0.0 | 0.0 | 0.00 | 0.00 | 0.00 | 96 | 1012.2 |
| 20260505160804 | 16 | 0 | 0.0 | 0.0 | 0.00 | 0.00 | 0.00 | 96 | 1012.2 |
| 20260505160305 | 16 | 0 | 0.0 | 0.0 | 0.00 | 0.00 | 0.00 | 96 | 1012.4 |
| 20260505153305 | 16 | 0 | 0.0 | 0.0 | 0.00 | 0.00 | 0.00 | 96 | 1012.7 |
| 20260505152305 | 16 | 0 | 0.0 | 0.0 | 0.00 | 0.00 | 0.00 | 96 | 1012.8 |
| 20260505151805 | 16 | 0 | 0.0 | 0.0 | 0.00 | 0.00 | 0.00 | 96 | 1012.8 |
| 20260505151304 | 16 | 0 | 0.0 | 0.0 | 0.00 | 0.00 | 0.00 | 96 | 1012.8 |
| 20260505150804 | 16 | 0 | 0.0 | 0.0 | 0.00 | 0.00 | 0.00 | 96 | 1012.8 |
| 20260505140306 | 16 | 0 | 0.0 | 0.0 | 0.00 | 0.00 | 0.00 | 96 | 1013.0 |
| 20260505130306 | 16 | 12 | 1.6 | 4.8 | 0.00 | 0.00 | 0.00 | 96 | 1013.0 |
| 20260505121805 | 16 | 224 | 1.6 | 4.8 | 0.00 | 0.00 | 0.00 | 96 | 1012.9 |